ARIANE 42P DEB, 44512

Orbit data source: Space-Track

ARIANE 42P DEB, 44512 is space debris in LEO originally from a launch on Mon, 10 Aug 1992 UTC launched from the French Guiana (FRGUI). Debris objects in space refer to the collection of defunct objects orbiting the Earth. Examples of debris include non-operational satellites, rocket bodies, and fragments generated from explosions, collisions, or faulty payload assembly.

Loading next visibility...
Identifier
44512, 1992-052K
Orbit
LEO
Last TLE update
14 hours ago
Origin
Manufacturer
ArianeGroup
Mission
Spacecraft
Bus & Motor
Unknown
Mass
Unknown
Launch date (UTC)
1992-08-10 (33 years ago)
Launch vehicle
Unknown
Launch site
French Guiana (FRGUI)
Object type
Payload
Rocket body
Debris
Shape & HBR
Unknown
Radar Cross Section
Small (<0.1 m²)

Expand to show TLE details & history

TLE from 14 hours ago
0 ARIANE 42P DEB
1 44512U 92052K   25183.29581579  .00001528  00000-0  56504-2 0  9997
2 44512  65.9154 244.0187 0246727 116.8813 245.7651 12.85812409275374
Epoch: 2025-07-02T07:05Z
TLE epoch observation values (Epoch: 2025-07-02T07:05:58.484Z)
Latitude
-0.00003°
Longitude
-143.05396°
Altitude
1,401.887 km
Speed
7.121 km/s
True Right ascension
16h 16m 04s
True Declination
0° 00' 00"
Sunlit
Object was in full shadow at epoch
Visualization orbit readout
Latitude
31.72273°
Longitude
19.77795°
Altitude
1,153.006 km
Speed
7.359 km/s
Apparent Right ascension
00h 27m 16s
Apparent Declination
0° 59' 17"
Sunlit
Object is in daylight
Visualization observer readout
Local Sidereal Time
08:37:57
Azimuth
291.591° WNW
Elevation
-25.152°
Doppler factor
1
Orbital elements
Apogee altitude
1,506.614 km
Perigee altitude
1,126.907 km
Semi-major axis
7,694.897 km
Eccentricity
0.02467
Inclination
65.9154°
RAAN
244.0187°
Arg. of periapsis
116.8813°
True anomaly
Unknown
Mean anomaly
245.7651°
Eccentric anomaly
Unknown
Mean motion
3.21543 °/min
Orbital period
111.96 mins
BSTAR
0.0056504
Loading maneuver chart data...
Loading SW <> Apogee altitude chart data...
Loading historical data...
Loading historical data...
Loading historical data...
Loading historical data...
Loading historical data...
Loading historical data...
Loading historical data...

ARIANE 42P DEB Visibility forecast

Observer location: undefined°, undefined°

Span
Click to sort rows by Start time (UTC) header in descending order
Start Az.
Max El. time (UTC)
Max El. Az.
Max El.
End time (UTC)
End Az.
7 mins2025-07-03 03:45:50.431Z129.135° SE2025-07-03 03:48:50.431Z105.817° ESE14.454°2025-07-03 03:52:50.431Z73.292° E
14 mins2025-07-03 05:36:50.431Z204.423° SW2025-07-03 05:43:50.431Z96.699° ESE44.791°2025-07-03 05:50:50.431Z31.952° NE
9 mins2025-07-03 07:35:50.431Z278.268° WNW2025-07-03 07:39:50.431Z317.313° NNW22.265°2025-07-03 07:44:50.431Z5.655° NNE
11 mins2025-07-03 13:31:50.431Z352.135° N2025-07-03 13:36:50.431Z52.958° ENE29.274°2025-07-03 13:42:50.431Z111.154° ESE
12 mins2025-07-03 15:26:50.431Z314.834° NW2025-07-03 15:31:50.431Z253.305° W37.141°2025-07-03 15:38:50.431Z175.237° S
|